Stations météo

réclame
Mon MeteoGroup
Lanveoc Poulmic, France (7109): Température de l'air & dewpoint: 15.06.2018 12:00:00 - 21.06.2018 12:00:00 (CEST)Lanveoc Poulmic, France (7109): Vitesse du vent & gusts: 15.06.2018 12:00:00 - 21.06.2018 12:00:00 (CEST)Lanveoc Poulmic, France (7109): Direction du vent: 15.06.2018 12:00:00 - 21.06.2018 12:00:00 (CEST)Lanveoc Poulmic, France (7109): reduced air pressure: 15.06.2018 12:00:00 - 21.06.2018 12:00:00 (CEST)Lanveoc Poulmic, France (7109): visibility: 15.06.2018 12:00:00 - 21.06.2018 12:00:00 (CEST)Lanveoc Poulmic, France (7109): Quantités de précipitations: 15.06.2018 12:00:00 - 21.06.2018 12:00:00 (CEST)
Date & Time tt [°C] td [°C] ff [km/h] ff [knt] fx [km/h] fx [knt] dd ppp [hPa] vv [km] rr [mm]
21.06.2018 12:00:00 16,9 8,3 21 11 44 24 NE 1026,2 10 0,0
21.06.2018 11:00:00 16,5 7,4 24 13 42 23 NE 1026,2 10 -
21.06.2018 10:00:00 15,5 7,8 24 13 50 27 NNE 1026,1 10 0,0
21.06.2018 09:00:00 15,0 9,1 24 13 42 23 NNE 1025,9 10 0,0
21.06.2018 08:00:00 13,9 9,3 22 12 39 21 NNE 1025,6 10 -
21.06.2018 07:00:00 12,8 9,4 24 13 39 21 NNE 1025,3 10 0,0
21.06.2018 06:00:00 12,7 9,5 24 13 41 22 NNE 1024,7 10 0,0
21.06.2018 05:00:00 13,2 11,1 21 11 37 20 NNE 1024,1 10 -
21.06.2018 04:00:00 14,6 12,8 21 11 31 17 N 1024,0 10 0,0
21.06.2018 03:00:00 14,5 12,9 16 9 29 16 N 1024,1 10 0,0
21.06.2018 02:00:00 14,4 13,3 18 10 28 15 N 1024,1 10 -
21.06.2018 01:00:00 14,8 14,3 18 10 29 16 N 1024,2 10 0,0
21.06.2018 00:00:00 15,1 14,6 13 7 31 17 N 1024,0 10 0,0
20.06.2018 23:00:00 14,8 14,3 18 10 29 16 N 1024,1 16 -
20.06.2018 22:00:00 15,3 14,2 18 10 35 19 N 1022,9 10 0,0
20.06.2018 21:00:00 19,2 15,3 16 9 22 12 N 1022,1 10 0,0
20.06.2018 20:00:00 20,5 15,7 18 10 26 14 N 1022,0 27 -
20.06.2018 19:00:00 21,3 15,8 16 9 29 16 N 1022,0 10 0,0
20.06.2018 18:00:00 22,9 16,4 21 11 29 16 NNW 1021,7 19 0,0
20.06.2018 17:00:00 24,6 17,8 11 6 21 11 NNW 1021,5 17 -
20.06.2018 16:00:00 23,6 17,8 13 7 18 10 WNW 1021,8 10 0,0
20.06.2018 15:00:00 23,5 17,7 11 6 16 9 NNW 1022,1 10 0,0
20.06.2018 14:00:00 22,6 17,5 8 4 15 8 NNW 1022,6 10 -
20.06.2018 13:00:00 20,4 17,8 8 4 13 7 N 1022,8 10 0,0
20.06.2018 12:00:00 17,8 17,6 5 3 13 7 - 1023,0 6 0,0
20.06.2018 11:00:00 16,2 16,2 8 4 13 7 N 1023,1 0,1 -
20.06.2018 10:00:00 15,8 15,8 8 4 13 7 N 1023,3 0,2 0,0
20.06.2018 09:00:00 15,6 15,6 5 3 9 5 - 1023,1 0,2 0,0
20.06.2018 08:00:00 15,3 15,3 4 2 8 4 N 1023,1 - -
20.06.2018 07:00:00 15,3 15,3 4 2 11 6 ENE 1022,9 - 0,0
20.06.2018 06:00:00 15,2 15,2 5 3 13 7 E 1022,9 0,3 0,0
20.06.2018 05:00:00 15,2 15,2 8 4 11 6 ENE 1023,1 - -
20.06.2018 04:00:00 15,3 15,1 8 4 13 7 ENE 1023,1 0,1 0,0
20.06.2018 03:00:00 15,2 15,0 8 4 16 9 ENE 1023,5 0,5 0,0
20.06.2018 02:00:00 15,4 15,1 9 5 18 10 ENE 1023,9 0,8 -
20.06.2018 01:00:00 15,7 15,2 11 6 21 11 NNE 1024,3 6 0,0
20.06.2018 00:00:00 16,1 15,3 13 7 21 11 NNE 1024,6 10 0,0
19.06.2018 23:00:00 16,3 15,3 9 5 18 10 NNW 1024,6 23 -
19.06.2018 22:00:00 16,4 14,4 11 6 15 8 WNW 1024,1 35 0,0
19.06.2018 21:00:00 18,4 14,9 11 6 18 10 WNW 1024,2 40 0,0
19.06.2018 20:00:00 19,4 15,1 13 7 18 10 WNW 1024,4 35 -
19.06.2018 19:00:00 20,3 15,7 11 6 21 11 NW 1024,8 10 0,0
19.06.2018 18:00:00 20,3 15,3 11 6 15 8 NW 1025,4 35 0,0
19.06.2018 17:00:00 19,2 15,5 9 5 15 8 WNW 1025,9 35 -
19.06.2018 16:00:00 19,1 16,1 11 6 39 21 NW 1026,1 45 0,0
19.06.2018 15:00:00 19,2 16,4 8 4 15 8 W 1026,4 19 0,0
19.06.2018 14:00:00 17,7 15,9 8 4 13 7 S 1026,8 30 -
19.06.2018 13:00:00 18,0 15,3 4 2 9 5 - 1027,0 10 0,0
19.06.2018 12:00:00 17,4 14,5 8 4 16 9 NNW 1026,9 10 0,0
19.06.2018 11:00:00 16,6 15,8 5 3 9 5 NNW 1027,0 45 -
19.06.2018 10:00:00 16,0 15,8 4 2 5 3 - 1027,2 10 0,0
19.06.2018 09:00:00 15,8 15,8 4 2 5 3 - 1027,0 10 0,0
19.06.2018 08:00:00 15,4 15,4 5 3 5 3 S 1027,1 10 -
19.06.2018 07:00:00 15,1 15,1 2 1 5 3 SW 1026,7 10 0,0
19.06.2018 06:00:00 15,0 15,0 0 0 13 7 N 1026,5 16 0,2
19.06.2018 05:00:00 15,1 15,1 9 5 15 8 WNW 1026,4 0,3 -
19.06.2018 04:00:00 15,2 15,2 9 5 13 7 WNW 1026,5 2,8 0,0
19.06.2018 03:00:00 15,0 15,0 8 4 15 8 W 1026,7 0,3 0,2
19.06.2018 02:00:00 14,8 14,6 9 5 15 8 WSW 1027,0 0,3 -
19.06.2018 01:00:00 14,7 14,5 8 4 15 8 W 1027,1 3,9 0,0
19.06.2018 00:00:00 14,8 14,6 9 5 16 9 W 1027,5 4,6 0,2
18.06.2018 23:00:00 15,1 14,9 11 6 15 8 W 1027,3 0,4 -
18.06.2018 22:00:00 15,2 14,9 13 7 18 10 WSW 1026,9 0,9 0,2
18.06.2018 21:00:00 15,5 15,2 15 8 22 12 W 1026,6 1,3 0,0
18.06.2018 20:00:00 15,7 15,2 15 8 24 13 WSW 1026,6 2,0 -
18.06.2018 19:00:00 16,3 15,2 16 9 24 13 WSW 1026,4 2,8 0,0
18.06.2018 18:00:00 17,2 14,7 15 8 24 13 WSW 1026,3 10 0,0
18.06.2018 17:00:00 16,6 14,2 18 10 28 15 WSW 1026,5 19 -
18.06.2018 16:00:00 16,6 14,4 16 9 24 13 SW 1026,3 9 0,0
18.06.2018 15:00:00 17,8 15,1 15 8 21 11 WSW 1025,8 10 0,0
18.06.2018 14:00:00 17,2 14,5 9 5 22 12 WSW 1025,9 40 -
18.06.2018 13:00:00 17,1 14,6 11 6 21 11 WNW 1026,0 10 0,0
18.06.2018 12:00:00 16,1 13,9 13 7 22 12 WNW 1025,7 10 0,0
18.06.2018 11:00:00 16,0 13,3 13 7 24 13 NW 1025,4 29 -
18.06.2018 10:00:00 15,0 13,7 15 8 22 12 WNW 1025,1 10 0,0
18.06.2018 09:00:00 14,6 13,0 13 7 21 11 WNW 1024,4 10 0,0
18.06.2018 08:00:00 14,3 13,7 15 8 24 13 WNW 1023,8 13 -
18.06.2018 07:00:00 14,2 13,7 13 7 21 11 W 1023,5 10 0,0
18.06.2018 06:00:00 14,1 13,5 13 7 24 13 W 1023,1 10 0,0
18.06.2018 05:00:00 14,0 13,2 15 8 26 14 W 1022,8 10 -
18.06.2018 04:00:00 14,1 13,8 13 7 22 12 W 1022,8 10 0,0
18.06.2018 03:00:00 14,4 14,2 15 8 26 14 WNW 1022,8 7 0,0
18.06.2018 02:00:00 14,5 14,3 18 10 31 17 W 1022,5 4,0 -
18.06.2018 01:00:00 14,7 14,5 18 10 34 18 W 1022,3 4,0 0,4
18.06.2018 00:00:00 14,9 14,7 11 6 18 10 WSW 1022,4 2,6 0,0
17.06.2018 23:00:00 14,9 14,7 11 6 29 16 W 1022,1 5 -
17.06.2018 22:00:00 15,0 14,8 18 10 31 17 W 1021,6 5 0,0
17.06.2018 21:00:00 15,2 15,0 21 11 31 17 W 1021,5 1,1 0,2
17.06.2018 20:00:00 15,2 15,0 18 10 29 16 W 1020,9 1,3 -
17.06.2018 19:00:00 15,5 15,3 18 10 39 21 WSW 1020,8 0,8 0,0
17.06.2018 18:00:00 15,7 15,5 22 12 35 19 WSW 1020,8 1,9 0,2
17.06.2018 17:00:00 15,5 15,3 21 11 37 20 WSW 1020,9 2,9 -
17.06.2018 16:00:00 15,3 15,1 22 12 39 21 SW 1020,7 1,1 0,0
17.06.2018 15:00:00 14,8 14,5 24 13 42 23 SSW 1020,7 2,8 0,4
17.06.2018 14:00:00 14,3 14,0 22 12 35 19 SSW 1021,0 1,4 -
17.06.2018 13:00:00 14,2 13,7 21 11 35 19 SSW 1021,2 2,3 1,0
17.06.2018 12:00:00 14,2 13,1 21 11 41 22 SW 1021,2 5 0,2
17.06.2018 11:00:00 15,5 11,9 22 12 41 22 SW 1021,0 19 -
17.06.2018 10:00:00 15,3 11,1 26 14 39 21 SW 1021,1 10 0,0
17.06.2018 09:00:00 14,7 10,7 16 9 28 15 SW 1020,9 10 0,0
17.06.2018 08:00:00 13,9 10,3 13 7 26 14 SW 1020,6 35 -
17.06.2018 07:00:00 13,6 9,4 13 7 24 13 WSW 1020,9 10 0,0
17.06.2018 06:00:00 13,6 9,6 13 7 26 14 W 1020,5 10 0,0
17.06.2018 05:00:00 13,6 10,6 15 8 22 12 W 1020,5 35 -
17.06.2018 04:00:00 13,4 10,2 13 7 26 14 W 1020,8 10 0,0
17.06.2018 03:00:00 13,7 9,9 15 8 22 12 W 1021,1 10 0,0
17.06.2018 02:00:00 13,7 10,7 13 7 18 10 W 1021,0 35 -
17.06.2018 01:00:00 13,7 9,5 13 7 21 11 W 1021,1 10 0,0
17.06.2018 00:00:00 13,8 10,2 11 6 22 12 W 1021,2 10 0,0
16.06.2018 23:00:00 13,8 10,6 11 6 21 11 W 1020,6 45 -
16.06.2018 22:00:00 14,3 10,3 11 6 21 11 W 1020,4 10 0,0
16.06.2018 21:00:00 14,8 10,4 15 8 29 16 WNW 1020,2 10 0,0
16.06.2018 20:00:00 15,4 10,2 16 9 31 17 WNW 1019,9 10 -
16.06.2018 19:00:00 16,1 10,6 21 11 31 17 WNW 1019,5 10 0,0
16.06.2018 18:00:00 17,0 10,4 22 12 31 17 WNW 1019,5 10 0,0
16.06.2018 17:00:00 16,3 11,4 22 12 31 17 WNW 1019,5 18 -
16.06.2018 16:00:00 15,7 13,9 15 8 28 15 W 1018,6 10 0,2
16.06.2018 15:00:00 14,5 13,5 13 7 34 18 W 1018,5 3,0 0,4
16.06.2018 14:00:00 15,1 14,1 18 10 34 18 SW 1018,2 10 -
16.06.2018 13:00:00 14,7 13,7 21 11 37 20 SW 1018,3 3,5 0,0
16.06.2018 12:00:00 14,2 12,1 22 12 39 21 SSW 1018,0 10 0,0
16.06.2018 11:00:00 14,3 12,5 24 13 37 20 SW 1018,0 12 -
16.06.2018 10:00:00 14,1 11,8 22 12 39 21 SW 1017,8 6 0,2
16.06.2018 09:00:00 15,1 12,0 18 10 29 16 SW 1017,6 10 0,0
16.06.2018 08:00:00 14,1 11,6 15 8 26 14 SW 1017,5 45 -
16.06.2018 07:00:00 13,5 11,0 15 8 21 11 SW 1017,2 45 0,0
16.06.2018 06:00:00 13,1 11,2 13 7 18 10 SW 1017,4 35 0,0
16.06.2018 05:00:00 12,6 10,7 11 6 15 8 SSW 1017,7 40 -
16.06.2018 04:00:00 12,5 10,0 9 5 13 7 SW 1018,4 40 0,0
16.06.2018 03:00:00 12,4 10,3 8 4 11 6 WSW 1018,9 50 0,0
16.06.2018 02:00:00 12,7 10,6 9 5 13 7 WSW 1019,2 50 -
16.06.2018 01:00:00 12,6 10,0 8 4 11 6 WSW 1018,8 35 0,0
16.06.2018 00:00:00 12,3 10,2 8 4 9 5 WSW 1019,6 10 0,0
15.06.2018 23:00:00 13,1 10,6 8 4 11 6 WSW 1019,6 35 -
15.06.2018 22:00:00 13,9 9,9 8 4 21 11 W 1019,3 10 0,0
15.06.2018 21:00:00 15,8 9,2 15 8 26 14 WNW 1019,6 10 0,0
15.06.2018 20:00:00 16,4 10,0 16 9 26 14 WNW 1019,9 10 -
15.06.2018 19:00:00 17,3 9,9 16 9 28 15 NW 1019,6 10 0,0
15.06.2018 18:00:00 16,4 9,6 16 9 29 16 WNW 1020,2 10 0,0
15.06.2018 17:00:00 17,6 10,2 21 11 29 16 WNW 1020,3 50 -
15.06.2018 16:00:00 18,0 8,8 18 10 26 14 WNW 1020,6 10 0,0
15.06.2018 15:00:00 17,3 9,0 16 9 34 18 WNW 1020,5 10 0,0
15.06.2018 14:00:00 17,4 9,0 5 3 21 11 NNW 1020,4 35 -
15.06.2018 13:00:00 16,2 9,8 11 6 18 10 W 1020,6 10 0,0
15.06.2018 12:00:00 16,6 8,3 5 3 11 6 - 1020,3 10 0,0

tt = Température de l'air
td = dewpoint
ff = Vitesse du vent
fx = gusts
dd = Direction du vent
ppp = reduced air pressure
vv = visibility
rr = Quantités de précipitations

stations d'obs. à proximité